Content
SEND FEEDBACK

Daily
Averages
Monthly
Summary
United States of America

ASHEVILLE, NORTH CAROLINA


Home > North America > United States > North Carolina
Elevation: 2240 feet     Latitude: 35 36N     Longitude: 082 32W

WEATHER
 
SELECT A DAY
Number of Records: 225,823;   Date Range: 1/1/95 - 7/29/14
 
SHARE

PRINT THIS DATA

[ ← Previous Day ]
WEATHER ALMANAC - APRIL 17, 2013
[ Next Day → ]
[ °C ]   °F
Weather ElementAverageHighLow
Temperature63.2 °F75 °F (12:54 pm)55.9 °F (4:54 am)
Dewpoint57.5 °F61 °F (3:54 pm)54 °F (4:54 am)
Humidity82.5 %94 % (3:33 pm)57 % (12:54 pm)
Barometer30.20 in30.28 in (9:54 am)30.12 in (11:54 pm)
Wind Speed5.4 mph24.2 mph (2:13 pm)
Wind Gust29.9 mph (2:13 pm)
Weather ElementAverage
Visibility8.9 mi
Wind DirectionESE (125.7 °)

Weather ElementTotal
Precipitation0.48 in
Cooling Degree Days0.5 (Base 65)
Growing Degree Days15.5 (Base 50)
Averaged from 28 records on April 17, 2013
WEATHER CONDITIONS BREAKOUT
WIND DIRECTION BREAKOUT
WEATHER BY HOUR - APRIL 17, 2013
[ °C ]   °F
Local TimeTemperatureDewpointHumidityBarometerVisibilityWind DirectionWind SpeedGust SpeedPrecipitationEventsConditions
1:54 AM62.1 °F55.9 °F80 %30.19 in10.0 miCalmOvercast
2:54 AM60.1 °F55.9 °F86 %30.19 in10.0 miCalmClear
3:54 AM57.9 °F55.0 °F90 %30.20 in10.0 miCalmClear
4:54 AM55.9 °F54.0 °F93 %30.20 in10.0 miCalmClear
5:54 AM55.9 °F54.0 °F93 %30.20 in10.0 miCalmClear
6:54 AM57.0 °F55.0 °F93 %30.22 in10.0 miCalmMostly Cloudy
7:54 AM57.9 °F55.0 °F90 %30.26 in10.0 miNorth (360°)5.8 mphOvercast
8:54 AM61.0 °F55.9 °F83 %30.24 in10.0 miCalmScattered Clouds
9:54 AM66.2 °F57.2 °F73 %30.28 in10.0 miCalmClear
10:54 AM68.0 °F57.9 °F70 %30.21 in10.0 miCalmOvercast
11:54 AM73.0 °F57.9 °F59 %30.20 in10.0 miNNE (30°)5.8 mph0.01 inScattered Clouds
12:54 PM75.0 °F59.0 °F57 %30.17 in10.0 miENE (70°)4.6 mphScattered Clouds
1:54 PM73.0 °F57.9 °F59 %30.17 in10.0 miNorth (350°)16.1 mph21.9 mphOvercast
2:13 PM66.2 °F55.4 °F68 %30.25 in10.0 miNW (320°)24.2 mph29.9 mph0.00 inRainLight Rain
2:31 PM64.4 °F57.2 °F77 %30.26 in10.0 miNW (320°)18.4 mph29.9 mph0.00 inRain-ThunderstormLight Thunderstorms and Rain
2:48 PM62.6 °F59.0 °F88 %30.28 in1.8 miNNW (330°)16.1 mph0.03 inRain-ThunderstormLight Thunderstorms and Rain
2:54 PM62.1 °F59.0 °F90 %30.23 in1.0 miNNW (330°)12.7 mph0.20 inRainHeavy Rain
3:02 PM62.6 °F59.0 °F88 %30.27 in2.0 miNorth (360°)10.4 mph0.04 inRainHeavy Rain
3:33 PM62.6 °F60.8 °F94 %30.24 in5.0 miVariable4.6 mph0.10 inRainLight Rain
3:54 PM64.0 °F61.0 °F90 %30.21 in10.0 miWSW (250°)3.5 mph0.10 inScattered Clouds
4:54 PM64.9 °F61.0 °F87 %30.18 in10.0 miSouth (190°)5.8 mphClear
5:54 PM64.9 °F61.0 °F87 %30.17 in10.0 miSouth (190°)4.6 mphClear
6:54 PM64.0 °F59.0 °F84 %30.14 in10.0 miSE (140°)5.8 mphClear
7:54 PM63.0 °F59.0 °F87 %30.14 in10.0 miSE (140°)8.1 mphClear
8:54 PM63.0 °F57.9 °F84 %30.15 in10.0 miSE (140°)4.6 mphClear
9:54 PM63.0 °F57.0 °F81 %30.14 in10.0 miCalmClear
10:54 PM60.1 °F57.0 °F90 %30.13 in10.0 miCalmClear
11:54 PM60.1 °F57.0 °F90 %30.12 in10.0 miCalmClear
Hourly data recorded from KAVL, located miles away from Asheville, North Carolina







STORIES FROM OUR PARTNERS